Location: Clyde
(45.1830°S, 169.3170°E)
Time: 08:00:17
(UTC+12:00)

Cosmos 1867 - Pass Details

Date: 14 May 2021
Orbit: 773 x 802 km, 65.0° (Epoch: 19 June)

Event Time Altitude Azimuth Distance (km) Brightness Sun altitude
Rises 19:50:16 0° 214° (SW) 3,288 7.2 -25.6°
Reaches altitude 10° 19:52:43 10° 210° (SSW) 2,354 6.3 -26.0°
Enters shadow 19:57:06 53° 176° (S) 964 3.9 -26.8°
